TIANMU-1 17

Last updated on Wed Sep 23 2026 00:03:10 GMT+0000 (Coordinated Universal Time)

1 58702U 24004C 26265.63513711 .00003670 00000+0 13874-3 0 9991 2 58702 97.4644 91.5731 0005960 28.0510 332.1049 15.27605982150643
UTC large
Height (km)
Speed (km/s)
/
Latitude / Longitude
Inclination (degrees)
Orbital Period (minutes)
Azimuth
Elevation
Range (km)
Doppler Factor

Next 0 passes for location: London (51.5072 / 0.1276)

No passes found over London.
TIANMU-1 17